Location: Auckland
(36.8670°S, 174.7670°E)
Time: 11:20:47
(UTC+12:00)

Tiros 1 despin weight - Pass Details

Date: 27 July 2019
Orbit: 594 x 642 km, 48.2° (Epoch: 24 August)

Event Time Altitude Azimuth Distance (km) Brightness Sun altitude
Rises 21:06:53 0° 316° (NW) 2,843 - -43.0°
Reaches altitude 10° 21:09:11 10° 320° (NW) 1,941 - -43.4°
Maximum altitude 21:13:34 60° 39° (NE) 689 - -44.3°
Drops below altitude 10° 21:17:58 10° 119° (ESE) 1,948 - -45.2°
Sets 21:20:17 0° 122° (ESE) 2,856 - -45.6°
